Hourly Weather Kyshtym

Today, 24 October, Saturday

Time Temperature Precipitation Wind Pressure Humidity
00:00 -6°C° 0 mm 2 mps 740 mmHg 80%
01:00 -6°C° 0 mm 2 mps 740 mmHg 79%
02:00 -6°C° 0 mm 2 mps 739 mmHg 76%
03:00 -7°C° 0 mm 3 mps 739 mmHg 72%
04:00 -6°C° 0 mm 3 mps 739 mmHg 69%
05:00 -7°C° 0.1 mm 4 mps 738 mmHg 77%
06:00 -5°C° 0.1 mm 4 mps 737 mmHg 85%
07:00 -6°C° 0.1 mm 5 mps 736 mmHg 92%
08:00 -5°C° 0.3 mm 5 mps 735 mmHg 92%
09:00 -4°C° 0.3 mm 5 mps 735 mmHg 91%
10:00 -3°C° 0.3 mm 6 mps 734 mmHg 91%
11:00 -2°C° 0.6 mm 5 mps 733 mmHg 93%
12:00 -2°C° 0.6 mm 5 mps 732 mmHg 95%
13:00 -1°C° 0.6 mm 4 mps 731 mmHg 97%
14:00 0°C° 1.2 mm 4 mps 731 mmHg 96%
15:00 0°C° 1.2 mm 4 mps 730 mmHg 96%
16:00 +1°C° 1.2 mm 4 mps 730 mmHg 96%
17:00 +1°C° 0.5 mm 4 mps 729 mmHg 96%
18:00 +3°C° 0.5 mm 3 mps 729 mmHg 96%
19:00 +3°C° 0.5 mm 3 mps 729 mmHg 96%
20:00 +3°C° 0.4 mm 3 mps 729 mmHg 95%
21:00 +4°C° 0.4 mm 4 mps 729 mmHg 94%
22:00 +4°C° 0.4 mm 4 mps 729 mmHg 93%
23:00 +4°C° 0 mm 4 mps 729 mmHg 93%

Tomorrow, 25 October, Sunday

Time Temperature Precipitation Wind Pressure Humidity
00:00 +4°C° 0 mm 4 mps 730 mmHg 92%
01:00 +4°C° 0 mm 4 mps 730 mmHg 92%
02:00 +4°C° 0 mm 4 mps 730 mmHg 92%
03:00 +4°C° 0 mm 3 mps 731 mmHg 93%
04:00 +4°C° 0 mm 3 mps 731 mmHg 93%
05:00 +3°C° 0 mm 3 mps 731 mmHg 93%
06:00 +3°C° 0 mm 3 mps 732 mmHg 94%
07:00 +4°C° 0 mm 2 mps 732 mmHg 94%
08:00 +4°C° 0.1 mm 2 mps 732 mmHg 94%
09:00 +4°C° 0.1 mm 3 mps 733 mmHg 94%
10:00 +4°C° 0.1 mm 3 mps 733 mmHg 94%
11:00 +5°C° 0 mm 2 mps 733 mmHg 93%
12:00 +5°C° 0 mm 2 mps 733 mmHg 92%
13:00 +5°C° 0 mm 2 mps 733 mmHg 92%
14:00 +5°C° 0 mm 2 mps 733 mmHg 92%
15:00 +5°C° 0 mm 2 mps 733 mmHg 93%
16:00 +6°C° 0 mm 1 mps 733 mmHg 93%
17:00 +5°C° 0 mm 1 mps 733 mmHg 94%
18:00 +5°C° 0 mm 1 mps 732 mmHg 94%
19:00 +5°C° 0 mm 1 mps 732 mmHg 95%
20:00 +4°C° 0.1 mm 0 mps 732 mmHg 95%
21:00 +4°C° 0.1 mm 0 mps 731 mmHg 95%
22:00 +4°C° 0.1 mm 0 mps 731 mmHg 96%
23:00 +5°C° 0.8 mm 1 mps 730 mmHg 97%

Day after tomorrow, 26 October, Monday

Time Temperature Precipitation Wind Pressure Humidity
00:00 +5°C° 0.8 mm 1 mps 729 mmHg 98%
01:00 +4°C° 0.8 mm 1 mps 729 mmHg 99%
02:00 +3°C° 0.9 mm 2 mps 728 mmHg 98%
03:00 +3°C° 0.9 mm 2 mps 728 mmHg 98%
04:00 +2°C° 0.9 mm 3 mps 727 mmHg 98%
05:00 +2°C° 0.5 mm 3 mps 727 mmHg 98%
06:00 +2°C° 0.5 mm 3 mps 727 mmHg 97%
07:00 +2°C° 0.5 mm 3 mps 727 mmHg 97%
08:00 0°C° 0.5 mm 4 mps 727 mmHg 96%
09:00 0°C° 0.5 mm 4 mps 727 mmHg 96%
10:00 -1°C° 0.5 mm 5 mps 728 mmHg 95%
11:00 0°C° 0.1 mm 5 mps 728 mmHg 90%
12:00 0°C° 0.1 mm 5 mps 728 mmHg 85%
13:00 +1°C° 0.1 mm 5 mps 729 mmHg 79%
14:00 -1°C° 0 mm 6 mps 729 mmHg 80%
15:00 -2°C° 0 mm 6 mps 729 mmHg 82%
16:00 -2°C° 0 mm 6 mps 730 mmHg 83%
17:00 -3°C° 0 mm 6 mps 730 mmHg 84%
18:00 -4°C° 0 mm 7 mps 730 mmHg 84%
19:00 -4°C° 0 mm 7 mps 730 mmHg 85%
20:00 -4°C° 0.2 mm 7 mps 730 mmHg 87%
21:00 -4°C° 0.2 mm 7 mps 730 mmHg 90%
22:00 -4°C° 0.2 mm 7 mps 730 mmHg 92%
23:00 -4°C° 0.4 mm 7 mps 730 mmHg 91%

, 27 October, Tuesday

Time Temperature Precipitation Wind Pressure Humidity
00:00 -4°C° 0.4 mm 7 mps 730 mmHg 90%
01:00 -5°C° 0.4 mm 8 mps 730 mmHg 89%
02:00 -5°C° 0.1 mm 8 mps 731 mmHg 87%
03:00 -5°C° 0.1 mm 8 mps 732 mmHg 86%
04:00 -6°C° 0.1 mm 9 mps 732 mmHg 84%
05:00 -6°C° 0.1 mm 8 mps 733 mmHg 84%
06:00 -6°C° 0.1 mm 8 mps 734 mmHg 84%
07:00 -7°C° 0.1 mm 8 mps 735 mmHg 83%
08:00 -6°C° 0 mm 8 mps 735 mmHg 82%
09:00 -6°C° 0 mm 8 mps 736 mmHg 81%
10:00 -6°C° 0 mm 8 mps 737 mmHg 80%
11:00 -6°C° 0 mm 8 mps 738 mmHg 79%
12:00 -6°C° 0 mm 7 mps 738 mmHg 78%
13:00 -6°C° 0 mm 7 mps 739 mmHg 77%
14:00 -6°C° 0 mm 7 mps 740 mmHg 78%
15:00 -5°C° 0 mm 6 mps 740 mmHg 79%
16:00 -6°C° 0 mm 6 mps 741 mmHg 80%
17:00 -6°C° 0 mm 6 mps 742 mmHg 81%
18:00 -8°C° 0 mm 6 mps 743 mmHg 82%
19:00 -7°C° 0 mm 5 mps 743 mmHg 82%
20:00 -8°C° 0 mm 5 mps 744 mmHg 83%
21:00 -8°C° 0 mm 5 mps 744 mmHg 83%
22:00 -8°C° 0 mm 5 mps 745 mmHg 84%
23:00 -8°C° 0 mm 5 mps 745 mmHg 84%

27 October, Tuesday

Time Temperature Precipitation Wind Pressure Humidity
00:00 -4°C° 0.4 mm 7 mps 730 mmHg 90%
01:00 -5°C° 0.4 mm 8 mps 730 mmHg 89%
02:00 -5°C° 0.1 mm 8 mps 731 mmHg 87%
03:00 -5°C° 0.1 mm 8 mps 732 mmHg 86%
04:00 -6°C° 0.1 mm 9 mps 732 mmHg 84%
05:00 -6°C° 0.1 mm 8 mps 733 mmHg 84%
06:00 -6°C° 0.1 mm 8 mps 734 mmHg 84%
07:00 -7°C° 0.1 mm 8 mps 735 mmHg 83%
08:00 -6°C° 0 mm 8 mps 735 mmHg 82%
09:00 -6°C° 0 mm 8 mps 736 mmHg 81%
10:00 -6°C° 0 mm 8 mps 737 mmHg 80%
11:00 -6°C° 0 mm 8 mps 738 mmHg 79%
12:00 -6°C° 0 mm 7 mps 738 mmHg 78%
13:00 -6°C° 0 mm 7 mps 739 mmHg 77%
14:00 -6°C° 0 mm 7 mps 740 mmHg 78%
15:00 -5°C° 0 mm 6 mps 740 mmHg 79%
16:00 -6°C° 0 mm 6 mps 741 mmHg 80%
17:00 -6°C° 0 mm 6 mps 742 mmHg 81%
18:00 -8°C° 0 mm 6 mps 743 mmHg 82%
19:00 -7°C° 0 mm 5 mps 743 mmHg 82%
20:00 -8°C° 0 mm 5 mps 744 mmHg 83%
21:00 -8°C° 0 mm 5 mps 744 mmHg 83%
22:00 -8°C° 0 mm 5 mps 745 mmHg 84%
23:00 -8°C° 0 mm 5 mps 745 mmHg 84%

28 October, Wednesday

Time Temperature Precipitation Wind Pressure Humidity
00:00 -9°C° 0 mm 4 mps 746 mmHg 84%
01:00 -9°C° 0 mm 4 mps 746 mmHg 84%
02:00 -9°C° 0 mm 4 mps 747 mmHg 83%
03:00 -9°C° 0 mm 4 mps 747 mmHg 83%
04:00 -9°C° 0 mm 4 mps 748 mmHg 82%
05:00 -9°C° 0 mm 4 mps 748 mmHg 82%
06:00 -10°C° 0 mm 4 mps 749 mmHg 81%
07:00 -9°C° 0 mm 3 mps 749 mmHg 80%
08:00 -8°C° 0 mm 3 mps 749 mmHg 74%
09:00 -7°C° 0 mm 3 mps 750 mmHg 68%
10:00 -7°C° 0 mm 4 mps 750 mmHg 62%
11:00 -6°C° 0 mm 3 mps 751 mmHg 58%
12:00 -5°C° 0 mm 3 mps 751 mmHg 54%
13:00 -4°C° 0 mm 3 mps 751 mmHg 50%
14:00 -4°C° 0 mm 3 mps 751 mmHg 56%
15:00 -4°C° 0 mm 2 mps 752 mmHg 61%
16:00 -5°C° 0 mm 2 mps 752 mmHg 66%
17:00 -5°C° 0 mm 2 mps 752 mmHg 70%
18:00 -4°C° 0 mm 1 mps 752 mmHg 73%
19:00 -4°C° 0 mm 1 mps 753 mmHg 76%
20:00 -4°C° 0 mm 1 mps 753 mmHg 75%
21:00 -4°C° 0 mm 1 mps 753 mmHg 75%
22:00 -4°C° 0 mm 1 mps 753 mmHg 74%
23:00 -4°C° 0 mm 1 mps 753 mmHg 74%

29 October, Thursday

Time Temperature Precipitation Wind Pressure Humidity
00:00 -4°C° 0 mm 1 mps 753 mmHg 74%
01:00 -4°C° 0 mm 1 mps 753 mmHg 74%
02:00 -4°C° 0 mm 1 mps 753 mmHg 74%
03:00 -6°C° 0 mm 2 mps 752 mmHg 74%
04:00 -6°C° 0 mm 2 mps 752 mmHg 74%
05:00 -5°C° 0 mm 2 mps 752 mmHg 74%
06:00 -6°C° 0 mm 3 mps 752 mmHg 73%
07:00 -5°C° 0 mm 3 mps 752 mmHg 73%
08:00 -4°C° 0 mm 3 mps 752 mmHg 71%
09:00 -3°C° 0 mm 4 mps 751 mmHg 70%
10:00 -2°C° 0 mm 4 mps 751 mmHg 68%
11:00 -1°C° 0 mm 4 mps 751 mmHg 67%
12:00 0°C° 0 mm 5 mps 750 mmHg 66%
13:00 0°C° 0 mm 5 mps 750 mmHg 65%
14:00 0°C° 0 mm 5 mps 750 mmHg 66%
15:00 0°C° 0 mm 5 mps 750 mmHg 67%
16:00 0°C° 0 mm 5 mps 749 mmHg 68%
17:00 -1°C° 0 mm 5 mps 750 mmHg 68%
18:00 -2°C° 0 mm 6 mps 750 mmHg 69%
19:00 -2°C° 0 mm 6 mps 750 mmHg 69%
20:00 -2°C° 0 mm 6 mps 750 mmHg 70%
21:00 -2°C° 0 mm 5 mps 750 mmHg 71%
22:00 -2°C° 0 mm 5 mps 750 mmHg 73%
23:00 -2°C° 0 mm 5 mps 750 mmHg 73%
Show more

We Need Your Consent

Meteoprog and our Service Providers may store and access personal data such as cookies, device identifiers or other similar technologies on your device and process such data to personalise content and ads, as well as provide social media features and to analyse the traffic.

  • Store and/or access information on your device

    Cookies, device identifiers or other information can be stored or accessed on your device for the purposes indicated above.

  • Personalised ads and content, ad and content measurement, audience insights, and products development

    Ads and content can be personalised based on a profile. More data can be added to better personalise ads and content. Ad and content performance can be measured. Insights about the audience who saw the ads and content can be derived. Such data can be used to develop or improve user’s experience, systems and software.

By clicking ‘I Agree’ you will allow the use of indicated cookies, device identifiers, web beacons or other similar technologies. Your settings can be changed in the browser on your device.

For certain purposes, legitimate interests may be relied on, rather than consent. You can read more about this in our Privacy and Cookie Policy.